Theta_e
289 288 287 286 285 284 283 282 282 281 280 279 279 278 277 277 277 277 276 276 276 275 275 275 275 274 273 273 274 273 272 272 269 271 273 273 273 273 275 275 276 276 276
288 286 286 284 284 283 282 281 281 279 279 279 278 278 277 276 276 276 276 275 275 275 274 275 273 275 272 272 272 272 271 272 271 269 271 272 272 274 274 274 275 276 275
286 286 284 283 283 282 281 281 279 278 278 278 277 277 276 276 275 276 276 275 275 275 274 273 273 273 272 272 271 271 271 273 271 270 269 272 272 274 273 273 274 274 275
285 285 283 283 283 282 281 280 279 278 277 277 277 276 276 276 275 276 275 275 275 275 274 273 273 272 272 271 271 271 272 271 271 270 270 271 272 273 272 271 271 273 272
284 284 283 283 282 281 280 280 278 278 278 278 276 276 276 276 276 275 275 275 275 274 273 274 273 273 275 274 273 272 271 270 270 270 270 271 271 270 270 272 270 271 272
284 283 283 282 281 280 279 279 278 277 277 277 276 276 275 276 280 280 277 275 275 274 272 273 273 273 274 277 277 278 276 270 264 265 271 270 270 270 271 271 270 269 267
283 283 282 282 280 280 279 278 277 277 277 276 276 276 275 275 282 282 280 276 275 273 273 273 273 273 273 272 275 277 278 278 278 276 266 270 270 271 272 271 270 269 268
282 281 282 281 280 279 278 278 277 277 277 276 275 276 275 275 283 283 280 276 275 274 273 273 273 273 272 272 272 272 273 273 274 275 274 273 273 275 273 272 270 267 268
281 281 281 281 280 278 278 278 278 277 276 276 276 275 275 275 284 284 282 275 275 274 274 273 273 272 274 277 274 272 272 273 277 279 278 278 278 277 275 271 262 264 263
282 282 281 281 280 279 279 278 278 278 277 277 276 276 276 275 284 285 283 276 274 273 273 273 275 273 276 277 275 270 268 270 271 268 269 270 271 270 273 270 268 263 264
282 281 281 281 280 280 279 278 278 277 276 275 275 275 275 276 279 285 285 277 275 273 272 272 272 277 278 278 279 272 271 273 270 266 265 266 267 267 268 269 269 268 265
281 280 280 280 280 280 279 278 277 277 276 275 275 274 274 275 277 283 284 283 279 273 271 272 272 276 278 279 278 279 280 278 262 257 258 262 264 266 267 268 268 268 268
281 281 281 281 280 280 279 277 277 277 276 275 274 273 273 274 274 281 283 284 283 276 272 272 275 276 278 278 280 279 273 264 260 257 260 263 265 266 267 266 267 267 267
282 282 282 281 280 280 281 279 278 276 276 275 274 274 275 273 272 272 276 277 280 280 278 276 277 277 278 275 270 274 270 266 265 263 264 265 265 264 262 264 263 263 262
282 281 281 282 281 280 280 279 278 278 278 276 276 276 275 272 272 275 274 269 269 270 259 258 262 264 265 268 265 266 267 266 265 265 264 262 262 262 262 263 263 261 259
276 279 280 280 280 279 278 275 282 281 281 282 281 277 267 278 279 278 278 277 277 277 268 258 262 266 268 269 268 269 266 265 265 264 262 262 261 261 261 261 261 260 258
274 272 272 273 274 273 272 273 271 275 279 281 282 281 278 276 278 279 279 279 279 278 271 268 267 267 268 269 268 266 263 264 265 263 263 262 261 260 259 258 259 259 258
267 269 271 270 270 269 270 270 271 270 269 271 279 279 279 278 279 279 279 279 273 277 272 271 268 266 264 264 263 262 262 262 262 262 261 260 258 259 257 256 257 257 257
265 265 265 265 265 266 265 264 267 267 266 266 259 273 274 279 278 278 279 271 268 267 264 264 265 263 263 263 262 261 260 258 256 254 253 254 254 253 256 257 258 259 259
260 263 262 262 261 261 262 264 264 265 264 265 263 265 257 263 264 260 257 257 260 261 263 262 261 261 260 259 254 251 251 250 247 247 249 250 253 257 257 257 257 257 257
260 260 260 258 260 259 259 260 258 258 258 258 259 256 267 261 260 255 259 260 261 260 261 259 259 258 252 250 252 249 250 251 246 247 249 255 256 255 256 257 257 257 256
258 257 256 257 256 258 257 258 258 258 258 257 252 254 274 258 257 256 256 257 259 259 258 257 254 251 251 250 251 249 249 247 246 246 250 253 254 255 255 256 255 256 255
257 256 254 252 253 254 253 252 252 253 253 252 254 255 254 253 253 255 258 258 256 255 253 253 254 253 250 249 248 250 249 249 250 248 249 249 252 254 254 254 254 253 252
255 255 255 253 254 254 254 253 254 255 255 254 254 254 255 256 257 257 256 255 254 255 254 253 251 250 249 249 246 246 247 247 246 248 249 250 251 251 253 252 252 252 249
254 254 255 254 254 253 254 252 254 253 253 255 256 257 256 256 256 256 256 255 255 254 253 252 249 249 249 248 247 244 245 253 250 249 248 247 248 248 251 250 250 244 245
253 253 252 253 253 252 253 253 252 253 253 253 255 256 255 255 254 255 255 254 254 253 251 249 248 248 247 247 247 250 253 256 253 253 250 249 248 249 247 245 244 244 247
Wind_Speed
12 12 12 11 11 11 10 10 10 10 10 10 10 10 10 9 7 8 8 8 9 8 5 6 6 5 4 4 4 3 3 2 2 3 3 2 4 6 8 7 8 8 8
9 9 10 11 10 11 10 11 11 11 10 11 10 10 9 8 7 8 8 7 9 9 7 6 6 5 5 4 3 4 3 3 2 3 3 2 5 8 8 8 7 7 8
13 13 11 11 12 12 12 12 11 12 10 9 10 10 10 9 8 7 7 7 6 6 7 7 6 6 4 3 3 3 2 2 2 2 4 2 4 6 9 7 8 8 8
13 14 15 15 14 12 12 12 11 11 12 11 9 9 9 8 7 7 7 6 6 6 5 5 6 6 6 5 4 4 3 1 2 3 4 5 5 7 6 9 12 9 12
13 14 14 13 14 13 13 13 12 10 10 10 11 9 9 9 7 9 8 8 7 6 5 6 5 5 8 7 4 4 3 1 3 3 2 4 7 8 8 8 9 12 11
15 14 14 14 14 14 14 13 12 12 11 11 11 12 10 6 16 17 11 8 8 7 6 5 5 6 6 9 7 7 7 4 3 3 2 3 7 7 6 8 9 10 10
14 12 13 14 14 15 14 14 14 14 13 11 11 11 10 8 19 18 15 6 7 7 6 7 6 5 6 4 7 8 6 9 10 4 3 4 7 7 7 10 9 9 10
13 13 13 14 15 15 16 16 14 13 14 12 11 11 10 8 20 18 15 5 6 7 7 7 7 6 7 6 5 4 5 6 5 4 6 8 7 6 5 7 9 9 10
14 14 14 15 15 15 16 16 14 13 12 11 11 11 11 9 21 20 15 7 6 6 6 6 7 7 11 13 7 6 7 5 8 12 13 13 13 16 14 8 4 6 10
14 14 15 16 16 17 16 15 12 11 11 9 10 10 11 11 21 20 16 6 6 5 6 7 13 8 13 14 7 6 6 6 5 1 1 5 7 8 14 6 5 6 7
12 12 13 13 14 14 13 10 11 11 9 9 10 8 9 10 12 21 21 8 7 6 6 6 6 16 17 17 16 6 8 5 3 3 2 2 4 5 4 5 6 6 7
12 12 11 11 10 10 14 11 12 11 10 10 9 7 6 7 13 20 23 22 15 8 8 5 6 16 17 16 13 15 17 9 3 2 0 2 4 4 4 5 7 8 7
14 14 13 13 12 13 14 13 11 11 10 9 8 7 8 7 7 22 23 23 23 11 7 10 15 16 16 16 19 15 2 3 2 1 2 4 4 5 6 6 7 9 9
12 12 12 12 11 11 9 9 9 10 9 10 10 10 9 8 8 7 9 11 20 14 14 10 12 13 15 12 3 7 2 3 3 3 3 4 4 4 4 4 5 6 6
10 9 10 9 11 10 9 10 10 11 14 13 12 12 12 10 14 16 14 9 7 7 4 2 1 1 2 3 2 4 3 3 4 3 4 5 5 5 5 2 5 5 4
8 8 8 8 8 7 8 4 15 13 18 21 18 12 3 11 14 20 21 23 23 20 6 4 4 5 7 7 6 6 4 5 5 4 4 5 5 5 5 3 5 5 6
9 7 6 6 7 7 7 8 7 8 12 20 22 17 18 15 16 18 20 21 22 18 10 7 6 7 8 7 5 4 3 3 2 4 4 4 5 5 4 4 5 6 5
6 8 7 6 7 6 7 7 6 8 7 6 17 15 17 17 20 19 18 17 7 13 7 6 4 3 2 3 2 2 2 2 4 4 5 5 4 5 4 5 5 6 6
6 5 5 5 4 5 5 5 5 6 5 5 0 9 9 17 15 17 19 5 5 4 3 3 3 3 2 3 3 3 3 3 3 3 3 3 3 3 5 6 6 9 9
4 7 5 4 4 4 4 5 5 6 5 5 4 5 1 4 3 2 2 3 3 3 3 3 3 3 3 3 3 3 2 2 2 3 3 3 4 5 6 6 6 6 5
4 4 6 4 4 4 4 4 3 4 4 4 4 4 10 4 5 3 3 3 4 3 3 3 3 2 2 3 3 3 3 3 3 3 3 5 5 5 5 6 6 5 5
4 4 4 4 4 4 4 4 4 5 4 4 2 2 14 3 4 3 3 3 3 3 2 2 3 3 3 4 4 4 4 4 3 3 3 3 4 5 5 6 5 5 5
4 5 3 3 2 4 3 2 3 3 3 3 3 4 4 3 3 3 3 3 2 2 2 3 3 2 2 3 4 4 4 5 5 4 4 4 4 5 4 6 6 5 4
5 5 5 4 3 4 4 4 4 4 5 4 4 4 4 4 4 4 3 3 3 3 3 3 3 4 3 4 3 4 4 4 4 5 7 5 5 4 5 5 6 6 5
4 4 4 4 4 4 4 3 3 4 4 4 4 3 3 4 4 4 4 3 3 3 3 3 3 5 7 8 7 6 6 9 6 6 5 5 6 6 6 5 6 3 4
5 5 4 4 4 4 4 4 3 2 2 2 3 3 3 3 3 3 4 4 3 3 3 3 5 8 8 7 8 9 9 10 8 9 6 6 6 6 4 5 6 4 7
Wind_Direction
171 168 164 163 161 156 161 152 146 141 143 140 137 132 128 124 125 120 120 126 120 117 111 122 120 119 111 108 107 110 110 121 173 291 248 285 282 289 299 295 296 301 307
169 163 162 157 156 161 158 155 153 151 149 147 142 135 129 126 128 134 136 137 134 131 130 124 126 126 117 125 118 131 139 159 164 264 283 272 263 305 302 309 311 305 308
161 161 162 165 164 166 164 158 151 148 144 140 136 139 139 142 133 126 135 139 128 133 139 152 150 141 148 144 140 153 157 173 171 238 276 275 274 315 324 308 309 318 329
164 169 165 168 172 171 161 158 153 156 147 145 143 137 139 138 136 138 136 133 130 147 140 146 155 161 161 156 171 176 178 169 234 241 255 295 316 329 306 323 336 344 331
169 173 175 167 163 162 158 156 147 151 147 144 135 131 140 149 156 148 146 152 149 150 152 161 161 167 175 179 166 181 172 185 238 239 263 311 326 321 333 338 323 322 324
178 181 171 166 161 161 156 153 148 148 147 147 151 153 154 159 170 168 158 158 162 163 164 173 169 179 204 204 211 215 196 194 223 209 317 303 293 305 320 326 321 328 327
179 174 169 164 162 160 154 154 161 162 156 159 157 157 160 160 176 173 172 164 169 171 167 178 190 198 197 211 233 236 248 274 267 291 173 259 293 302 307 316 314 308 295
177 167 164 164 163 161 159 165 162 162 165 166 164 165 161 174 180 174 172 177 173 180 185 185 192 187 199 204 217 235 242 246 256 271 250 259 257 266 301 308 311 309 294
182 170 166 165 165 162 167 167 166 164 163 169 169 163 167 178 183 179 176 178 190 197 197 196 199 202 213 224 216 230 242 240 249 260 281 297 311 313 314 315 311 309 307
182 172 165 169 170 170 168 167 169 170 166 161 165 175 178 179 188 188 184 169 190 199 204 207 213 210 224 230 231 226 247 240 225 247 304 302 309 298 304 297 287 284 290
162 160 164 169 163 160 156 159 156 162 153 162 170 178 181 180 191 199 201 183 197 200 210 211 209 225 227 233 242 205 229 222 213 173 230 261 272 270 265 263 268 277 282
147 148 153 149 150 152 150 153 155 159 169 171 175 178 186 187 201 210 208 208 198 195 213 209 206 225 233 242 248 254 256 260 141 158 356 283 288 276 272 276 277 274 269
148 153 157 154 160 163 163 165 163 172 178 176 181 185 195 202 206 214 219 223 215 208 201 211 222 230 236 245 251 259 201 145 143 103 254 271 260 268 281 282 279 277 279
152 157 155 159 165 169 173 174 173 173 180 182 193 199 204 196 207 200 208 226 230 230 210 219 222 223 227 225 223 257 164 183 191 222 249 260 269 264 264 259 288 299 298
154 152 157 168 174 172 183 181 186 193 192 189 201 197 196 202 215 203 200 191 196 197 109 65 140 177 212 220 203 218 215 211 224 224 242 255 262 265 270 261 282 290 271
141 152 161 161 169 171 175 174 200 199 206 212 211 203 239 223 210 200 205 216 215 206 202 177 195 206 223 228 230 236 202 213 224 223 231 242 259 266 279 277 276 275 283
151 148 146 149 160 162 167 180 181 226 214 221 218 216 209 200 198 200 206 218 214 201 212 211 211 208 223 224 222 205 201 205 205 221 244 241 248 258 267 277 278 279 282
129 144 155 161 162 164 172 177 175 182 187 204 218 207 213 204 202 200 198 204 206 207 205 217 206 168 139 152 152 168 200 208 219 232 237 235 233 253 260 258 265 273 278
142 151 146 144 150 152 147 153 174 176 190 182 260 232 214 200 198 203 204 188 172 178 142 138 138 153 171 184 195 205 212 202 205 209 231 216 230 217 255 254 259 271 278
128 144 138 144 143 143 157 171 181 194 184 187 194 191 150 73 138 140 96 118 116 103 135 167 170 172 179 178 185 197 212 236 243 228 237 227 237 239 255 255 254 264 269
124 118 126 107 141 150 155 168 154 154 167 178 190 195 187 154 159 143 134 132 138 147 158 153 159 174 174 176 200 209 219 239 222 227 223 242 241 248 247 256 261 258 267
118 125 125 147 145 157 175 167 170 171 172 164 195 228 206 113 128 126 115 113 124 117 119 151 176 188 190 184 195 202 217 224 228 228 233 244 246 251 252 258 258 260 267
114 119 109 101 113 115 98 104 118 118 127 130 139 107 93 111 118 112 124 122 131 154 158 176 207 230 193 221 209 204 202 219 219 198 218 223 229 248 247 255 261 263 257
107 115 121 118 121 123 133 138 135 135 134 138 134 130 130 135 137 147 149 154 173 190 194 207 215 233 248 238 226 217 219 229 210 212 213 221 245 249 251 248 253 254 253
99 110 117 132 127 123 111 98 109 120 126 141 142 132 141 147 159 172 181 180 181 191 226 221 219 236 245 252 252 244 236 251 237 211 205 201 225 230 243 243 256 228 231
85 88 94 98 101 114 125 130 121 103 114 109 119 137 145 157 165 174 181 196 200 212 219 216 234 240 246 245 247 251 246 247 238 227 205 205 216 230 219 221 237 229 243